Time,TemperatureF,DewpointF,PressureIn,WindDirection,WindDirectionDegrees,WindSpeedMPH,WindSpeedGustMPH,Humidity,HourlyPrecipIn,Conditions,Clouds,dailyrainin,SolarRadiationWatts/m^2,SoftwareType,DateUTC
2013-08-03 00:43:00,61.0,45.0,-100.00,East,81,3.0,14.0,55,0.00,,,0.00,0.000000,,2013-08-03 08:43:00,
2013-08-03 00:52:00,61.0,45.0,-100.00,East,81,3.0,14.0,55,0.00,,,0.00,0.000000,,2013-08-03 08:52:00,
2013-08-03 01:43:00,60.0,45.0,-100.00,ENE,75,4.0,9.0,57,0.00,,,0.00,0.000000,,2013-08-03 09:43:00,
2013-08-03 01:53:00,60.0,45.0,-100.00,ENE,75,4.0,9.0,57,0.00,,,0.00,0.000000,,2013-08-03 09:53:00,
2013-08-03 02:22:00,60.0,45.0,-100.00,ESE,111,4.0,15.0,57,0.00,,,0.00,0.000000,,2013-08-03 10:22:00,
2013-08-03 02:32:00,60.0,45.0,-100.00,ESE,111,4.0,15.0,57,0.00,,,0.00,0.000000,,2013-08-03 10:32:00,
2013-08-03 02:42:00,60.0,45.0,-100.00,ESE,111,4.0,15.0,57,0.00,,,0.00,0.000000,,2013-08-03 10:42:00,
2013-08-03 02:53:00,60.0,45.0,-100.00,ESE,111,4.0,15.0,57,0.00,,,0.00,0.000000,,2013-08-03 10:53:00,
2013-08-03 03:43:00,58.0,47.0,-100.00,NNE,27,4.0,26.0,66,0.00,,,0.00,0.000000,,2013-08-03 11:43:00,
2013-08-03 03:52:00,58.0,47.0,-100.00,NNE,27,4.0,26.0,66,0.00,,,0.00,0.000000,,2013-08-03 11:52:00,
2013-08-03 04:22:00,59.0,44.0,-100.00,SE,127,5.0,13.0,58,0.00,,,0.00,0.000000,,2013-08-03 12:22:00,
2013-08-03 04:32:00,59.0,44.0,-100.00,SE,127,5.0,13.0,58,0.00,,,0.00,0.000000,,2013-08-03 12:32:00,
2013-08-03 04:43:00,59.0,44.0,-100.00,SE,127,5.0,13.0,58,0.00,,,0.00,0.000000,,2013-08-03 12:43:00,
2013-08-03 04:52:00,59.0,44.0,-100.00,SE,127,5.0,13.0,58,0.00,,,0.00,0.000000,,2013-08-03 12:52:00,
2013-08-03 05:43:00,58.0,43.0,-100.00,SE,130,3.0,10.0,57,0.00,,,0.00,0.000000,,2013-08-03 13:43:00,
2013-08-03 05:52:00,58.0,43.0,-100.00,SE,130,3.0,10.0,57,0.00,,,0.00,0.000000,,2013-08-03 13:52:00,
2013-08-03 06:22:00,56.0,42.0,-100.00,ENE,72,3.0,12.0,60,0.00,,,0.00,1.000000,,2013-08-03 14:22:00,
2013-08-03 06:32:00,56.0,42.0,-100.00,ENE,72,3.0,12.0,60,0.00,,,0.00,1.000000,,2013-08-03 14:32:00,
2013-08-03 06:42:00,56.0,42.0,-100.00,ENE,72,3.0,12.0,60,0.00,,,0.00,1.000000,,2013-08-03 14:42:00,
2013-08-03 06:52:00,56.0,42.0,-100.00,ENE,72,3.0,12.0,60,0.00,,,0.00,1.000000,,2013-08-03 14:52:00,
2013-08-03 07:22:00,56.0,44.0,-100.00,West,263,3.0,10.0,63,0.00,,,-99.99,21.000000,,2013-08-03 15:22:00,
2013-08-03 07:32:00,56.0,44.0,-100.00,West,263,3.0,10.0,63,0.00,,,-99.99,21.000000,,2013-08-03 15:32:00,
2013-08-03 07:43:00,56.0,44.0,-100.00,West,263,3.0,10.0,63,0.00,,,-99.99,21.000000,,2013-08-03 15:43:00,
2013-08-03 07:53:00,56.0,44.0,-100.00,West,263,3.0,10.0,63,0.00,,,-99.99,21.000000,,2013-08-03 15:53:00,
2013-08-03 08:23:00,60.0,45.0,-100.00,SE,134,4.0,16.0,58,0.00,,,0.00,136.000000,,2013-08-03 16:23:00,
2013-08-03 08:33:00,60.0,45.0,-100.00,SE,134,4.0,16.0,58,0.00,,,0.00,136.000000,,2013-08-03 16:33:00,
2013-08-03 08:43:00,60.0,45.0,-100.00,SE,134,4.0,16.0,58,0.00,,,0.00,136.000000,,2013-08-03 16:43:00,
2013-08-03 08:53:00,60.0,45.0,-100.00,SE,134,4.0,16.0,58,0.00,,,0.00,136.000000,,2013-08-03 16:53:00,
2013-08-03 09:22:00,62.0,46.0,-100.00,SE,143,10.0,18.0,55,0.00,,,0.00,254.000000,,2013-08-03 17:22:00,
2013-08-03 09:32:00,62.0,46.0,-100.00,SE,143,10.0,18.0,55,0.00,,,0.00,254.000000,,2013-08-03 17:32:00,
2013-08-03 09:43:00,62.0,46.0,-100.00,SE,143,10.0,18.0,55,0.00,,,0.00,254.000000,,2013-08-03 17:43:00,
2013-08-03 09:52:00,62.0,46.0,-100.00,SE,143,10.0,18.0,55,0.00,,,0.00,254.000000,,2013-08-03 17:52:00,
2013-08-03 10:43:00,63.0,45.0,-100.00,ESE,116,6.0,20.0,51,0.00,,,0.00,450.000000,,2013-08-03 18:43:00,
2013-08-03 10:53:00,63.0,45.0,-100.00,ESE,116,6.0,20.0,51,0.00,,,0.00,450.000000,,2013-08-03 18:53:00,
2013-08-03 11:32:00,64.0,44.0,-100.00,ESE,122,9.0,23.0,49,0.00,,,0.00,575.000000,,2013-08-03 19:32:00,
2013-08-03 11:43:00,64.0,44.0,-100.00,ESE,122,9.0,23.0,49,0.00,,,0.00,575.000000,,2013-08-03 19:43:00,
2013-08-03 11:52:00,64.0,44.0,-100.00,ESE,122,9.0,23.0,49,0.00,,,0.00,575.000000,,2013-08-03 19:52:00,
2013-08-03 12:42:00,61.0,44.0,-100.00,SE,138,10.0,25.0,54,0.00,,,0.00,207.000000,,2013-08-03 20:42:00,
2013-08-03 12:52:00,61.0,44.0,-100.00,SE,138,10.0,25.0,54,0.00,,,0.00,207.000000,,2013-08-03 20:52:00,
2013-08-03 13:22:00,65.0,45.0,-100.00,East,94,8.0,27.0,49,0.00,,,0.00,434.000000,,2013-08-03 21:22:00,
2013-08-03 13:32:00,65.0,45.0,-100.00,East,94,8.0,27.0,49,0.00,,,0.00,434.000000,,2013-08-03 21:32:00,
2013-08-03 13:42:00,65.0,45.0,-100.00,East,94,8.0,27.0,49,0.00,,,0.00,434.000000,,2013-08-03 21:42:00,
2013-08-03 13:52:00,65.0,45.0,-100.00,East,94,8.0,27.0,49,0.00,,,0.00,434.000000,,2013-08-03 21:52:00,
2013-08-03 14:22:00,64.0,42.0,-100.00,SE,129,10.0,27.0,45,0.00,,,0.00,846.000000,,2013-08-03 22:22:00,
2013-08-03 14:33:00,64.0,42.0,-100.00,SE,129,10.0,27.0,45,0.00,,,0.00,846.000000,,2013-08-03 22:33:00,
2013-08-03 14:42:00,64.0,42.0,-100.00,SE,129,10.0,27.0,45,0.00,,,0.00,846.000000,,2013-08-03 22:42:00,
2013-08-03 14:52:00,64.0,42.0,-100.00,SE,129,10.0,27.0,45,0.00,,,0.00,846.000000,,2013-08-03 22:52:00,
2013-08-03 15:22:00,66.0,45.0,-100.00,South,175,12.0,33.0,46,0.00,,,0.00,668.000000,,2013-08-03 23:22:00,
2013-08-03 15:32:00,66.0,45.0,-100.00,South,175,12.0,33.0,46,0.00,,,0.00,668.000000,,2013-08-03 23:32:00,
2013-08-03 15:42:00,66.0,45.0,-100.00,South,175,12.0,33.0,46,0.00,,,0.00,668.000000,,2013-08-03 23:42:00,
2013-08-03 15:52:00,66.0,45.0,-100.00,South,175,12.0,33.0,46,0.00,,,0.00,668.000000,,2013-08-03 23:52:00,
2013-08-03 16:22:00,66.0,45.0,-100.00,South,171,13.0,29.0,47,0.00,,,0.00,869.000000,,2013-08-04 00:22:00,
2013-08-03 16:32:00,66.0,45.0,-100.00,South,171,13.0,29.0,47,0.00,,,0.00,869.000000,,2013-08-04 00:32:00,
2013-08-03 16:42:00,66.0,45.0,-100.00,South,171,13.0,29.0,47,0.00,,,0.00,869.000000,,2013-08-04 00:42:00,
2013-08-03 16:52:00,66.0,45.0,-100.00,South,171,13.0,29.0,47,0.00,,,0.00,869.000000,,2013-08-04 00:52:00,
2013-08-03 17:22:00,64.0,44.0,-100.00,SSE,168,13.0,25.0,48,0.00,,,0.00,475.000000,,2013-08-04 01:22:00,
2013-08-03 17:32:00,64.0,44.0,-100.00,SSE,168,13.0,25.0,48,0.00,,,0.00,475.000000,,2013-08-04 01:32:00,
2013-08-03 17:42:00,64.0,44.0,-100.00,SSE,168,13.0,25.0,48,0.00,,,0.00,475.000000,,2013-08-04 01:42:00,
2013-08-03 17:52:00,64.0,44.0,-100.00,SSE,168,13.0,25.0,48,0.00,,,0.00,475.000000,,2013-08-04 01:52:00,
2013-08-03 18:22:00,62.0,46.0,-100.00,South,174,12.0,28.0,55,0.00,,,0.00,227.000000,,2013-08-04 02:22:00,
2013-08-03 18:32:00,62.0,46.0,-100.00,South,174,12.0,28.0,55,0.00,,,0.00,227.000000,,2013-08-04 02:32:00,
2013-08-03 18:42:00,62.0,46.0,-100.00,South,174,12.0,28.0,55,0.00,,,0.00,227.000000,,2013-08-04 02:42:00,
2013-08-03 18:52:00,62.0,46.0,-100.00,South,174,12.0,28.0,55,0.00,,,0.00,227.000000,,2013-08-04 02:52:00,
2013-08-03 19:22:00,62.0,45.0,-100.00,SSE,159,12.0,30.0,54,0.00,,,0.00,314.000000,,2013-08-04 03:22:00,
2013-08-03 19:32:00,62.0,45.0,-100.00,SSE,159,12.0,30.0,54,0.00,,,0.00,314.000000,,2013-08-04 03:32:00,
2013-08-03 19:42:00,62.0,45.0,-100.00,SSE,159,12.0,30.0,54,0.00,,,0.00,314.000000,,2013-08-04 03:42:00,
2013-08-03 19:52:00,62.0,45.0,-100.00,SSE,159,12.0,30.0,54,0.00,,,0.00,314.000000,,2013-08-04 03:52:00,
2013-08-03 20:22:00,60.0,45.0,-100.00,SSE,162,14.0,32.0,58,0.00,,,0.00,102.000000,,2013-08-04 04:22:00,
2013-08-03 20:32:00,60.0,45.0,-100.00,SSE,162,14.0,32.0,58,0.00,,,0.00,102.000000,,2013-08-04 04:32:00,
2013-08-03 20:42:00,60.0,45.0,-100.00,SSE,162,14.0,32.0,58,0.00,,,0.00,102.000000,,2013-08-04 04:42:00,
2013-08-03 20:51:00,60.0,45.0,-100.00,SSE,162,14.0,32.0,58,0.00,,,0.00,102.000000,,2013-08-04 04:51:00,
2013-08-03 21:22:00,60.0,44.0,-100.00,SSE,158,11.0,25.0,56,0.00,,,0.00,52.000000,,2013-08-04 05:22:00,
2013-08-03 21:32:00,60.0,44.0,-100.00,SSE,158,11.0,25.0,56,0.00,,,0.00,52.000000,,2013-08-04 05:32:00,
2013-08-03 21:42:00,60.0,44.0,-100.00,SSE,158,11.0,25.0,56,0.00,,,0.00,52.000000,,2013-08-04 05:42:00,
2013-08-03 21:52:00,60.0,44.0,-100.00,SSE,158,11.0,25.0,56,0.00,,,0.00,52.000000,,2013-08-04 05:52:00,
2013-08-03 22:22:00,59.0,45.0,-100.00,SSE,148,8.0,32.0,59,0.00,,,0.00,16.000000,,2013-08-04 06:22:00,
2013-08-03 22:32:00,59.0,45.0,-100.00,SSE,148,8.0,32.0,59,0.00,,,0.00,16.000000,,2013-08-04 06:32:00,
2013-08-03 22:43:00,59.0,45.0,-100.00,SSE,148,8.0,32.0,59,0.00,,,0.00,16.000000,,2013-08-04 06:43:00,
2013-08-03 22:52:00,59.0,45.0,-100.00,SSE,148,8.0,32.0,59,0.00,,,0.00,16.000000,,2013-08-04 06:52:00,
2013-08-03 23:22:00,59.0,45.0,-100.00,South,173,13.0,27.0,59,0.00,,,0.00,1.000000,,2013-08-04 07:22:00,
2013-08-03 23:32:00,59.0,45.0,-100.00,South,173,13.0,27.0,59,0.00,,,0.00,1.000000,,2013-08-04 07:32:00,
2013-08-03 23:42:00,59.0,45.0,-100.00,South,173,13.0,27.0,59,0.00,,,0.00,1.000000,,2013-08-04 07:42:00,
2013-08-03 23:52:00,59.0,45.0,-100.00,South,173,13.0,27.0,59,0.00,,,0.00,1.000000,,2013-08-04 07:52:00,